Showing default

COSMOS 2431 (GLONASS), 32277

Orbit data source: Space-Track

COSMOS 2431 (GLONASS), 32277 is a Commonwealth of Independent States-origin payload satellite in MEO that was launched on Fri, 26 Oct 2007 UTC via a PROTON-K/DM-2 launch vehicle from the Tyuratam Missile And Space Complex (TTMTR). Payloads include a variety of satellites, spacecraft, and rockets equipped with specific instruments for various scientific and technological missions. These include communications satellites like Starlink; space stations such as the ISS; scientific satellites like the Hubble; Earth observation satellites from companies like Planet Labs, Umbra, and HawkEye 360; GPS; miniature CubeSats for education and research; and military/defense satellites.

Loading next visibility...
COSMOS 2431 (GLONASS) details
Identifier
32277, 2007-052C
Orbit
MEO
Last TLE update4 days ago
Origin
Flag of CISKVR/IACG (CIS)
ManufacturerResehetnev ISS
MissionNon-operational Defense Navigation
Bus & MotorURAGAN, Unknown motor
Mass1,450 kg wet, ~1,200 kg dry
Launch date (UTC)
2007-10-26 (17 years ago)
Launch vehicle
PROTON-K/DM-2
Launch site
Tyuratam Missile And Space Complex (TTMTR)
Object type
Payload
Rocket body
Debris
Shape & HBRCyl + 1 Ant + 2 Pan, 7.8 m
Radar Cross Section8.467 m², Large (>1 m²)

Expand to show TLE details & history

TLE from 4 days ago
0 COSMOS 2431 (GLONASS)
1 32277U 07052C   24357.20913812 -.00000056  00000-0  00000-0 0  9994
2 32277  65.8729 334.0471 0014379 180.8407 255.7730  2.13208932133662
Epoch: 2024-12-22T05:01Z
Definitive object data (Epoch: 2024-12-22T05:01:09.533Z)
Latitude62.56979°
Longitude-132.96984°
Altitude19,140.451 km
Speed3.953 km/s
True Right ascension02h 14m 16s
True Declination62° 31' 50"
Sunlit
Object was in daylight at TLE epoch
Visualization TLE readout
Latitude63.71731°
Longitude-77.60111°
Altitude19,125.28 km
Speed3.956 km/s
Apparent Right ascension04h 13m 11s
Apparent Declination60° 50' 10"
Sunlit
Object is in daylight
Visualization observer readout
Local Sidereal Time10:26:42
Azimuth324.744° NNW
Elevation32.567°
Doppler factor1
Orbital elements
Apogee altitude19,157.608 km
Perigee altitude19,084.278 km
Semi-major axis25,499.08 km
Eccentricity0.0014379
Inclination65.8729°
RAAN334.0471°
Arg. of periapsis180.8407°
True anomaly255.61335°
Mean anomaly255.773°
Eccentric anomaly255.69317°
Mean motion0.53304 °/min
BSTARUnknown
Orbital period675.38 mins
Loading maneuver chart data...
Loading historical data...
Loading historical data...
Loading historical data...
Loading historical data...
Loading historical data...
Loading historical data...
Loading historical data...

COSMOS 2431 (GLONASS) Visibility forecast

Observer location: undefined°, undefined

Span
Click to sort rows by Start time (UTC) header in descending order
Start Az.
Max El. time (UTC)
Max El. Az.
Max El.
End time (UTC)
End Az.
176 mins2024-12-26 11:05:24.684Z324.725° NNW2024-12-26 12:08:24.684Z284.972° WNW37.245°2024-12-26 14:01:24.684Z224.211° SW
187 mins2024-12-26 19:09:24.684Z114.579° SE2024-12-26 20:44:24.684Z64.939° ENE30.555°2024-12-26 22:16:24.684Z24.489° NE
158 mins2024-12-27 08:27:24.684Z322.404° NNW2024-12-27 10:43:24.684Z271.82° WNW43.242°2024-12-27 11:05:24.684Z237.798° WSW
|